SCP
0 0 0 0 0 0 0 0 0 0 0 0 0 0 0 0 0 0 0 0 0 0 0 0 0 0 0 0 0 0 0 0 0 0 0 0 0 0 0 0 0 0 0 0
0 0 0 0 0 0 0 0 0 0 0 0 0 0 0 0 0 0 0 0 0 0 0 0 0 0 0 0 0 0 0 0 0 0 0 0 0 0 0 0 0 0 0 0
0 0 0 0 0 0 0 0 0 0 0 0 0 0 0 0 0 0 0 0 0 0 0 0 0 0 0 0 0 0 0 0 0 0 0 0 0 0 0 0 0 0 0 0
0 0 0 0 0 0 0 0 0 0 0 0 0 0 0 0 0 0 0 0 0 0 0 0 0 0 0 0 0 0 0 0 0 0 0 0 0 0 0 0 0 0 0 0
0 0 0 0 0 0 0 0 0 0 0 0 0 0 0 0 0 0 0 0 0 0 0 0 0 0 0 0 0 0 0 0 0 0 0 0 0 0 0 0 0 0 0 0
0 0 0 0 0 0 0 0 0 0 0 0 0 0 0 0 -0 0 0 0 0 0 0 0 0 0 0 0 0 0 0 0 0 0 0 -0 -0 0 0 0 0 0 0 0
0 0 0 0 0 0 0 0 0 0 0 0 0 0 0 0 0 0 0 0 0 0 0 0 0 0 0 0 0 0 0 0 0 0 0 0 0 0 0 0 0 0 0 0
0 0 0 0 0 0 0 0 0 0 0 0 0 0 0 0 0 0 0 0 0 0 0 0 0 0 0 0 0 0 0 0 0 0 0 0 0 0 0 0 0 0 0 0
0 0 0 0 0 0 0 0 0 0 0 0 0 0 0 0 0 0 0 0 0 0 0 0 0 0 0 0 0 0 0 0 0 -0 -0 0 0 0 0 0 0 0 0 0
0 0 0 0 0 0 0 0 0 0 0 0 0 0 0 0 0 0 0 0 0 0 0 0 0 0 0 0 0 0 0 0 0 -0 -0 -0 -0 -0 0 0 0 0 0 0
0 0 0 0 0 0 0 0 0 0 0 0 0 0 0 0 0 0 0 0 0 0 0 0 0 0 0 0 0 0 0 0 0 0 0 0 0 0 0 0 0 0 0 0
0 0 0 0 0 0 0 0 0 0 0 0 0 0 0 0 0 0 0 0 0 0 0 0 0 0 0 0 0 0 0 0 0 0 0 0 0 0 0 0 0 0 0 0
0 0 0 0 0 0 0 0 0 0 0 0 0 0 0 0 0 0 0 0 0 0 0 0 0 0 0 0 0 0 0 0 0 0 0 0 0 0 0 0 0 0 0 -0
0 0 0 0 0 0 0 0 0 0 0 0 0 0 0 0 0 0 0 0 0 0 0 0 0 0 0 0 0 0 0 0 0 0 0 0 0 0 0 0 0 0 -0 -0
0 0 0 0 0 0 0 0 0 0 0 0 0 0 0 0 0 0 0 0 0 0 0 0 0 0 0 0 0 0 0 0 0 0 0 0 0 0 0 0 -0 -0 -0 -0
0 0 0 0 0 0 0 0 0 0 0 0 0 0 0 0 0 0 0 0 0 0 0 0 0 0 0 0 0 0 0 0 0 0 0 0 0 0 0 0 0 -0 -0 -0
0 0 0 0 0 0 0 0 0 0 0 0 0 0 0 0 0 0 0 0 0 0 0 0 0 0 0 0 0 0 0 0 0 0 0 0 0 0 0 0 0 -0 -0 -0
0 0 0 0 0 0 0 0 0 0 0 0 0 0 0 0 0 0 0 0 0 0 0 0 0 0 0 0 0 0 0 0 0 0 0 0 0 0 0 0 0 0 -0 -0
0 0 0 0 0 0 0 0 0 0 0 0 0 0 0 0 0 0 0 0 0 0 0 0 0 0 0 0 0 0 0 0 0 0 0 0 0 0 0 0 0 0 0 0
0 0 0 0 0 0 0 0 0 0 0 0 0 0 0 0 0 0 0 0 0 0 0 0 0 0 0 0 0 0 0 0 0 0 0 0 0 0 0 0 -0 0 0 0
0 0 0 0 0 0 0 0 0 0 0 0 0 0 0 0 0 0 0 0 0 0 0 0 0 0 0 0 0 0 0 0 0 0 0 0 0 0 0 -0 -0 0 0 0
0 0 0 0 0 0 0 0 0 0 0 0 0 0 0 0 0 0 0 0 0 0 0 0 0 0 0 0 0 0 0 0 0 0 0 0 0 0 0 0 0 -0 0 0
0 0 0 0 0 0 0 0 0 0 0 0 0 0 0 0 0 0 0 0 0 0 0 0 0 0 0 0 0 0 0 0 -0 0 0 0 0 -0 0 -0 -0 0 -0 -0
0 0 0 0 0 0 0 0 0 0 0 0 0 0 0 0 0 0 0 0 0 0 0 0 0 0 0 0 0 0 -0 -0 0 0 0 0 -0 -0 -0 0 -0 0 0 -0
0 0 0 0 0 0 0 0 0 0 0 0 0 0 0 0 0 0 0 0 0 0 0 0 0 0 0 0 0 0 -0 0 0 0 0 -0 -0 -0 -0 -0 0 0 0 0
0 0 0 0 0 0 0 0 0 0 0 0 0 0 0 0 0 0 0 0 0 0 0 0 0 0 0 -0 0 -0 0 0 0 -0 -0 -0 -0 0 -0 -0 0 0 0 -0
Wind_Speed_500mb
19 17 20 15 16 9 11 18 25 23 17 21 25 26 26 25 28 18 7 6 11 16 17 18 21 22 22 22 21 22 23 23 21 19 14 12 17 15 14 24 28 30 33 36
12 24 18 7 8 14 20 25 28 23 11 16 28 32 34 12 5 4 4 10 12 15 14 16 19 21 23 23 24 23 24 26 27 26 24 22 23 25 29 27 28 32 34 36
27 5 2 16 15 21 23 25 26 22 22 31 27 40 15 10 9 6 6 7 9 9 11 12 14 15 12 15 18 23 25 26 26 26 27 27 24 22 21 29 33 34 36 37
20 25 17 15 23 19 25 13 22 21 16 14 4 13 16 19 15 13 12 12 12 11 10 9 9 14 19 25 28 30 32 31 32 36 35 31 26 27 31 32 36 40 41 41
2 10 15 24 24 9 14 4 10 15 22 25 27 14 7 15 21 20 20 18 18 15 11 6 8 12 18 22 26 30 35 41 38 36 37 37 37 34 32 33 38 38 42 43
17 2 10 13 9 15 2 13 17 17 18 20 24 23 10 18 22 19 22 24 23 19 12 6 8 11 17 21 24 28 32 37 42 44 41 40 37 40 39 39 41 38 39 38
13 27 16 18 18 13 21 13 10 11 13 16 8 14 30 17 12 10 22 28 28 22 13 6 4 8 13 20 25 27 30 33 36 38 38 35 37 36 36 38 37 40 39 39
10 11 21 18 24 9 24 22 12 14 15 18 18 15 4 1 12 17 19 24 29 23 13 7 4 7 12 18 21 23 27 30 34 36 37 36 37 34 32 34 35 34 37 39
8 14 8 14 7 18 14 15 19 30 32 24 26 34 21 16 15 20 26 29 32 25 17 10 5 6 11 16 22 27 30 31 35 37 37 36 36 35 36 33 34 35 35 37
2 19 16 7 11 13 18 5 13 14 17 34 26 26 22 21 23 23 29 37 35 28 22 13 5 4 8 13 17 22 24 27 32 37 41 40 38 37 36 35 36 37 38 39
2 8 10 8 19 31 15 21 18 22 22 26 30 25 15 4 8 25 30 37 37 33 25 17 7 3 6 10 12 16 22 26 30 33 35 38 39 38 40 41 41 41 39 39
8 9 22 29 16 10 18 30 31 24 26 15 24 35 6 7 11 14 20 31 32 33 25 18 11 6 4 7 9 15 20 24 26 27 29 32 34 35 37 42 42 42 42 39
3 14 23 35 25 27 21 26 25 12 6 25 26 29 9 6 8 14 23 30 34 33 28 22 16 9 5 8 10 13 15 19 21 24 26 28 31 33 35 37 40 42 42 40
4 19 26 29 28 25 22 24 27 33 21 33 39 45 37 19 20 17 26 32 33 33 28 21 20 12 8 9 10 12 13 16 18 20 23 25 30 30 29 29 32 38 41 43
9 27 30 36 38 37 41 42 42 45 43 40 49 41 46 35 21 23 29 32 35 31 26 21 19 13 10 9 8 9 11 14 17 18 21 25 28 29 30 30 27 29 34 41
9 21 21 37 33 37 43 47 51 49 51 52 53 56 42 16 3 14 27 31 31 29 26 21 18 17 12 11 10 8 8 11 14 16 20 22 22 25 27 29 31 33 37 42
26 21 18 38 27 20 25 52 50 46 49 44 41 51 31 11 13 18 23 28 30 32 28 23 21 18 16 14 13 12 13 14 14 17 21 22 23 22 25 29 29 33 35 38
38 34 22 30 30 29 31 10 18 26 35 39 45 41 13 7 9 10 17 27 32 32 28 25 23 21 19 18 16 15 14 13 14 16 20 22 24 24 24 25 28 32 36 42
42 35 23 24 31 38 56 21 11 15 40 22 32 17 14 16 19 10 15 23 30 33 29 24 24 23 23 19 16 13 14 16 16 18 20 22 23 21 23 24 28 32 37 43
34 40 28 29 33 39 35 6 13 9 28 19 19 21 24 27 13 9 29 29 31 27 20 28 29 26 21 16 13 9 12 16 21 23 21 21 23 23 26 28 32 35 38 41
11 12 29 31 35 31 23 22 21 16 9 8 14 26 33 16 7 30 39 30 25 24 33 32 28 24 21 16 14 12 17 19 23 22 21 22 22 25 27 30 32 34 36 38
32 19 20 20 24 37 26 21 17 3 10 11 16 25 27 17 24 32 34 33 33 36 34 28 26 25 20 18 13 16 19 21 19 19 20 22 23 26 25 27 30 34 35 35
23 27 20 17 11 4 38 5 10 11 16 17 19 22 27 29 32 36 37 37 36 35 32 27 25 24 21 17 15 18 21 19 17 15 19 22 23 24 28 30 32 31 33 36
19 26 14 9 11 4 21 7 10 8 14 18 15 24 29 34 37 38 39 41 38 33 31 27 25 23 22 19 18 17 19 17 15 15 18 21 23 27 27 24 29 33 35 35
18 10 21 22 9 2 20 35 24 20 19 21 21 23 30 35 38 42 43 40 36 32 29 26 23 22 21 20 20 20 18 16 13 14 17 17 19 19 22 30 28 29 36 38
19 20 14 15 5 19 12 42 32 26 24 23 24 25 27 33 43 44 43 39 34 31 29 28 25 24 23 22 22 20 18 15 13 14 16 16 15 15 16 15 19 28 31 33
Wind_Direction_500mb
200 222 231 251 238 298 263 264 275 276 269 292 270 278 281 274 277 280 223 154 119 106 96 80 68 63 50 39 28 19 12 8 358 356 347 308 305 295 296 276 273 276 277 277
200 241 260 280 236 235 247 263 269 280 275 267 282 283 280 308 271 257 185 151 143 127 104 83 70 59 51 44 36 29 25 16 7 358 348 339 331 321 311 299 291 284 281 277
255 3 23 202 221 239 244 266 274 278 295 277 279 273 173 172 171 148 138 143 142 137 119 97 75 54 34 26 31 23 17 14 7 1 350 345 341 333 315 307 299 293 289 286
260 265 230 223 246 255 270 269 264 269 273 276 80 288 206 184 204 203 187 182 169 159 139 108 61 31 13 1 352 354 351 347 346 347 343 340 342 337 326 323 314 308 296 289
167 196 211 229 248 239 277 267 254 268 269 281 263 256 160 185 220 207 200 193 184 172 153 119 52 30 23 9 4 356 355 349 339 340 338 336 333 328 324 323 317 313 307 302
265 259 233 239 222 230 195 233 239 256 263 259 256 219 248 181 220 197 197 198 187 178 171 136 65 46 32 16 11 8 4 354 349 344 345 340 335 330 323 320 319 314 310 306
214 233 220 215 222 202 219 250 269 246 207 257 94 254 252 185 205 217 197 198 190 185 182 158 88 53 30 15 12 7 3 357 352 347 342 341 336 333 333 328 327 324 317 309
256 205 196 174 219 268 212 231 253 265 263 276 168 253 260 253 191 213 202 194 188 187 180 161 104 58 29 16 8 6 6 5 360 353 350 346 345 341 340 335 331 328 324 321
224 225 156 203 190 210 149 222 270 275 271 267 260 259 164 173 193 196 201 196 196 191 181 172 121 56 25 17 8 10 11 8 7 5 2 360 356 351 348 344 340 334 331 328
262 269 255 203 205 211 251 359 239 228 265 257 257 258 265 194 217 210 212 209 203 196 186 174 138 62 28 14 9 8 10 17 18 16 13 12 9 6 3 357 351 348 344 339
298 258 221 206 220 250 200 232 241 276 256 266 273 270 47 300 214 205 215 211 204 195 194 172 159 83 43 28 16 10 18 22 18 17 18 17 19 17 16 14 8 1 354 349
312 285 269 257 271 252 258 266 277 252 252 256 279 273 125 236 246 232 205 196 198 188 189 175 172 156 87 48 26 20 17 11 10 12 13 14 17 22 23 23 17 12 7 0
348 244 271 263 221 228 243 245 242 231 288 260 264 268 130 179 189 189 182 181 178 178 179 166 154 154 116 66 37 29 16 11 9 8 10 11 11 16 22 24 22 22 20 13
248 253 250 266 284 322 270 264 254 240 251 261 257 273 264 221 232 212 188 180 181 181 177 172 152 147 115 74 47 34 28 26 19 12 12 16 17 14 16 21 24 27 27 26
255 265 269 270 271 275 274 276 271 265 254 253 271 271 277 281 285 235 220 184 176 176 176 171 149 134 116 87 66 53 46 40 37 33 31 32 28 24 26 30 30 29 28 32
230 268 278 271 268 265 268 267 263 259 260 264 265 268 276 302 203 187 190 192 187 181 175 162 143 135 125 108 89 75 67 53 41 36 35 33 26 23 26 32 38 39 37 41
267 269 272 272 285 291 272 256 261 261 257 251 256 261 299 249 223 210 199 195 187 176 171 158 148 143 141 128 109 94 82 74 63 52 48 42 36 31 31 33 38 44 42 42
253 251 260 265 272 250 265 305 289 278 265 255 255 270 267 280 132 162 183 182 175 170 165 158 153 146 145 131 111 90 83 79 72 64 58 52 47 42 40 38 42 46 46 44
232 238 245 250 258 267 277 255 206 215 267 254 247 246 172 150 140 139 159 162 165 171 170 165 160 154 148 139 121 95 84 81 80 75 67 62 59 57 58 54 52 51 47 48
232 227 231 239 246 260 271 141 187 187 267 213 220 184 175 166 206 143 165 158 165 170 173 160 154 150 149 145 149 129 106 95 86 78 72 68 65 67 63 58 54 51 52 49
194 207 230 233 242 257 239 153 156 205 296 149 181 175 175 186 42 146 164 163 171 166 154 152 155 158 158 158 148 137 119 104 86 76 74 71 69 67 67 62 58 52 50 48
246 228 229 235 240 247 137 144 218 133 122 173 172 172 171 149 143 148 157 157 154 150 149 149 151 158 161 151 150 139 124 102 95 85 80 75 70 65 59 54 49 46 42 39
242 233 244 225 259 113 186 35 197 142 170 177 178 170 168 161 154 155 151 152 154 154 150 147 147 151 143 137 136 134 122 113 101 96 83 73 66 64 54 51 48 42 36 36
241 239 240 266 215 251 193 244 187 170 179 166 173 173 180 168 163 158 156 154 154 152 150 151 149 145 138 135 138 131 124 114 108 98 85 74 65 64 63 53 47 48 43 38
282 174 242 247 230 70 246 230 206 174 170 180 188 189 188 183 169 163 158 156 156 155 154 156 157 154 145 141 139 137 129 122 118 104 90 79 69 70 60 62 66 52 49 50
207 225 219 257 214 211 251 204 189 179 182 186 187 170 167 173 164 160 156 156 154 154 156 156 158 153 144 146 147 145 139 139 131 111 100 96 84 78 77 69 50 50 49 48
Wind_Speed_850mb
19 17 20 15 16 9 11 18 25 23 17 21 25 26 26 25 28 18 7 6 11 16 17 18 21 22 22 22 21 22 23 23 21 19 14 12 17 15 14 24 28 30 33 36
12 24 18 7 8 14 20 25 28 23 11 16 28 32 34 12 5 4 4 10 12 15 14 16 19 21 23 23 24 23 24 26 27 26 24 22 23 25 29 27 28 32 34 36
27 5 2 16 15 21 23 25 26 22 22 31 27 40 15 10 9 6 6 7 9 9 11 12 14 15 12 15 18 23 25 26 26 26 27 27 24 22 21 29 33 34 36 37
20 25 17 15 23 19 25 13 22 21 16 14 4 13 16 19 15 13 12 12 12 11 10 9 9 14 19 25 28 30 32 31 32 36 35 31 26 27 31 32 36 40 41 41
2 10 15 24 24 9 14 4 10 15 22 25 27 14 7 15 21 20 20 18 18 15 11 6 8 12 18 22 26 30 35 41 38 36 37 37 37 34 32 33 38 38 42 43
17 2 10 13 9 15 2 13 17 17 18 20 24 23 10 18 22 19 22 24 23 19 12 6 8 11 17 21 24 28 32 37 42 44 41 40 37 40 39 39 41 38 39 38
13 27 16 18 18 13 21 13 10 11 13 16 8 14 30 17 12 10 22 28 28 22 13 6 4 8 13 20 25 27 30 33 36 38 38 35 37 36 36 38 37 40 39 39
10 11 21 18 24 9 24 22 12 14 15 18 18 15 4 1 12 17 19 24 29 23 13 7 4 7 12 18 21 23 27 30 34 36 37 36 37 34 32 34 35 34 37 39
8 14 8 14 7 18 14 15 19 30 32 24 26 34 21 16 15 20 26 29 32 25 17 10 5 6 11 16 22 27 30 31 35 37 37 36 36 35 36 33 34 35 35 37
2 19 16 7 11 13 18 5 13 14 17 34 26 26 22 21 23 23 29 37 35 28 22 13 5 4 8 13 17 22 24 27 32 37 41 40 38 37 36 35 36 37 38 39
2 8 10 8 19 31 15 21 18 22 22 26 30 25 15 4 8 25 30 37 37 33 25 17 7 3 6 10 12 16 22 26 30 33 35 38 39 38 40 41 41 41 39 39
8 9 22 29 16 10 18 30 31 24 26 15 24 35 6 7 11 14 20 31 32 33 25 18 11 6 4 7 9 15 20 24 26 27 29 32 34 35 37 42 42 42 42 39
3 14 23 35 25 27 21 26 25 12 6 25 26 29 9 6 8 14 23 30 34 33 28 22 16 9 5 8 10 13 15 19 21 24 26 28 31 33 35 37 40 42 42 40
4 19 26 29 28 25 22 24 27 33 21 33 39 45 37 19 20 17 26 32 33 33 28 21 20 12 8 9 10 12 13 16 18 20 23 25 30 30 29 29 32 38 41 43
9 27 30 36 38 37 41 42 42 45 43 40 49 41 46 35 21 23 29 32 35 31 26 21 19 13 10 9 8 9 11 14 17 18 21 25 28 29 30 30 27 29 34 41
9 21 21 37 33 37 43 47 51 49 51 52 53 56 42 16 3 14 27 31 31 29 26 21 18 17 12 11 10 8 8 11 14 16 20 22 22 25 27 29 31 33 37 42
26 21 18 38 27 20 25 52 50 46 49 44 41 51 31 11 13 18 23 28 30 32 28 23 21 18 16 14 13 12 13 14 14 17 21 22 23 22 25 29 29 33 35 38
38 34 22 30 30 29 31 10 18 26 35 39 45 41 13 7 9 10 17 27 32 32 28 25 23 21 19 18 16 15 14 13 14 16 20 22 24 24 24 25 28 32 36 42
42 35 23 24 31 38 56 21 11 15 40 22 32 17 14 16 19 10 15 23 30 33 29 24 24 23 23 19 16 13 14 16 16 18 20 22 23 21 23 24 28 32 37 43
34 40 28 29 33 39 35 6 13 9 28 19 19 21 24 27 13 9 29 29 31 27 20 28 29 26 21 16 13 9 12 16 21 23 21 21 23 23 26 28 32 35 38 41
11 12 29 31 35 31 23 22 21 16 9 8 14 26 33 16 7 30 39 30 25 24 33 32 28 24 21 16 14 12 17 19 23 22 21 22 22 25 27 30 32 34 36 38
32 19 20 20 24 37 26 21 17 3 10 11 16 25 27 17 24 32 34 33 33 36 34 28 26 25 20 18 13 16 19 21 19 19 20 22 23 26 25 27 30 34 35 35
23 27 20 17 11 4 38 5 10 11 16 17 19 22 27 29 32 36 37 37 36 35 32 27 25 24 21 17 15 18 21 19 17 15 19 22 23 24 28 30 32 31 33 36
19 26 14 9 11 4 21 7 10 8 14 18 15 24 29 34 37 38 39 41 38 33 31 27 25 23 22 19 18 17 19 17 15 15 18 21 23 27 27 24 29 33 35 35
18 10 21 22 9 2 20 35 24 20 19 21 21 23 30 35 38 42 43 40 36 32 29 26 23 22 21 20 20 20 18 16 13 14 17 17 19 19 22 30 28 29 36 38
19 20 14 15 5 19 12 42 32 26 24 23 24 25 27 33 43 44 43 39 34 31 29 28 25 24 23 22 22 20 18 15 13 14 16 16 15 15 16 15 19 28 31 33
Wind_Direction_850mb
200 222 231 251 238 298 263 264 275 276 269 292 270 278 281 274 277 280 223 154 119 106 96 80 68 63 50 39 28 19 12 8 358 356 347 308 305 295 296 276 273 276 277 277
200 241 260 280 236 235 247 263 269 280 275 267 282 283 280 308 271 257 185 151 143 127 104 83 70 59 51 44 36 29 25 16 7 358 348 339 331 321 311 299 291 284 281 277
255 3 23 202 221 239 244 266 274 278 295 277 279 273 173 172 171 148 138 143 142 137 119 97 75 54 34 26 31 23 17 14 7 1 350 345 341 333 315 307 299 293 289 286
260 265 230 223 246 255 270 269 264 269 273 276 80 288 206 184 204 203 187 182 169 159 139 108 61 31 13 1 352 354 351 347 346 347 343 340 342 337 326 323 314 308 296 289
167 196 211 229 248 239 277 267 254 268 269 281 263 256 160 185 220 207 200 193 184 172 153 119 52 30 23 9 4 356 355 349 339 340 338 336 333 328 324 323 317 313 307 302
265 259 233 239 222 230 195 233 239 256 263 259 256 219 248 181 220 197 197 198 187 178 171 136 65 46 32 16 11 8 4 354 349 344 345 340 335 330 323 320 319 314 310 306
214 233 220 215 222 202 219 250 269 246 207 257 94 254 252 185 205 217 197 198 190 185 182 158 88 53 30 15 12 7 3 357 352 347 342 341 336 333 333 328 327 324 317 309
256 205 196 174 219 268 212 231 253 265 263 276 168 253 260 253 191 213 202 194 188 187 180 161 104 58 29 16 8 6 6 5 360 353 350 346 345 341 340 335 331 328 324 321
224 225 156 203 190 210 149 222 270 275 271 267 260 259 164 173 193 196 201 196 196 191 181 172 121 56 25 17 8 10 11 8 7 5 2 360 356 351 348 344 340 334 331 328
262 269 255 203 205 211 251 359 239 228 265 257 257 258 265 194 217 210 212 209 203 196 186 174 138 62 28 14 9 8 10 17 18 16 13 12 9 6 3 357 351 348 344 339
298 258 221 206 220 250 200 232 241 276 256 266 273 270 47 300 214 205 215 211 204 195 194 172 159 83 43 28 16 10 18 22 18 17 18 17 19 17 16 14 8 1 354 349
312 285 269 257 271 252 258 266 277 252 252 256 279 273 125 236 246 232 205 196 198 188 189 175 172 156 87 48 26 20 17 11 10 12 13 14 17 22 23 23 17 12 7 0
348 244 271 263 221 228 243 245 242 231 288 260 264 268 130 179 189 189 182 181 178 178 179 166 154 154 116 66 37 29 16 11 9 8 10 11 11 16 22 24 22 22 20 13
248 253 250 266 284 322 270 264 254 240 251 261 257 273 264 221 232 212 188 180 181 181 177 172 152 147 115 74 47 34 28 26 19 12 12 16 17 14 16 21 24 27 27 26
255 265 269 270 271 275 274 276 271 265 254 253 271 271 277 281 285 235 220 184 176 176 176 171 149 134 116 87 66 53 46 40 37 33 31 32 28 24 26 30 30 29 28 32
230 268 278 271 268 265 268 267 263 259 260 264 265 268 276 302 203 187 190 192 187 181 175 162 143 135 125 108 89 75 67 53 41 36 35 33 26 23 26 32 38 39 37 41
267 269 272 272 285 291 272 256 261 261 257 251 256 261 299 249 223 210 199 195 187 176 171 158 148 143 141 128 109 94 82 74 63 52 48 42 36 31 31 33 38 44 42 42
253 251 260 265 272 250 265 305 289 278 265 255 255 270 267 280 132 162 183 182 175 170 165 158 153 146 145 131 111 90 83 79 72 64 58 52 47 42 40 38 42 46 46 44
232 238 245 250 258 267 277 255 206 215 267 254 247 246 172 150 140 139 159 162 165 171 170 165 160 154 148 139 121 95 84 81 80 75 67 62 59 57 58 54 52 51 47 48
232 227 231 239 246 260 271 141 187 187 267 213 220 184 175 166 206 143 165 158 165 170 173 160 154 150 149 145 149 129 106 95 86 78 72 68 65 67 63 58 54 51 52 49
194 207 230 233 242 257 239 153 156 205 296 149 181 175 175 186 42 146 164 163 171 166 154 152 155 158 158 158 148 137 119 104 86 76 74 71 69 67 67 62 58 52 50 48
246 228 229 235 240 247 137 144 218 133 122 173 172 172 171 149 143 148 157 157 154 150 149 149 151 158 161 151 150 139 124 102 95 85 80 75 70 65 59 54 49 46 42 39
242 233 244 225 259 113 186 35 197 142 170 177 178 170 168 161 154 155 151 152 154 154 150 147 147 151 143 137 136 134 122 113 101 96 83 73 66 64 54 51 48 42 36 36
241 239 240 266 215 251 193 244 187 170 179 166 173 173 180 168 163 158 156 154 154 152 150 151 149 145 138 135 138 131 124 114 108 98 85 74 65 64 63 53 47 48 43 38
282 174 242 247 230 70 246 230 206 174 170 180 188 189 188 183 169 163 158 156 156 155 154 156 157 154 145 141 139 137 129 122 118 104 90 79 69 70 60 62 66 52 49 50
207 225 219 257 214 211 251 204 189 179 182 186 187 170 167 173 164 160 156 156 154 154 156 156 158 153 144 146 147 145 139 139 131 111 100 96 84 78 77 69 50 50 49 48